Flag for U.S.A. Weather past 2 weeks in Atlantic City, New Jersey, U.S.A.

Now
31 °F

Sunny.


Feels Like: 23 °F
Forecast: 9 / 25 °F
Wind: 9 mph from Northwest

Location: Atlantic City International Airport

Current Time: Feb 27, 2015 at 5:45:29 PM

Latest Report: Feb 27, 2015 at 4:54 PM


Visibility: 10 mi

Pressure: 30.45 "Hg

Humidity: 47%

Dew point: 13 °F

Location of Atlantic CityLocation

Historic Weather in Atlantic City — Graph

°F

Atlantic City temperature yesterday

Maximum temperature yesterday: 32 °F (at 3:54 PM)
Minimum temperature yesterday: 18 °F (at 10:54 PM)
Average temperature yesterday: 27 °F

Past Weeks' High & Low Weather Summary

 TemperatureHumidityPressure
High43 °F (Feb 22, 1:54 PM)96% (Feb 21, 9:54 PM)30.55 "Hg (Feb 21, 9:54 PM)
Low-4 °F (Feb 21, 3:54 AM)24% (Feb 13, 2:54 PM)29.46 "Hg (Feb 14, 8:54 PM)
Average20 °F61%30.07 "Hg
* Reported Feb 12 3:54 PM — Feb 27 3:54 PM, Atlantic City, Weather by CustomWeather, © 2015

Note: Actual official high and low records may vary slightly from our data, if they occured in-between our weather recording intervals... More about our weather records

Advertising

Atlantic City weather history for previous 24 hours

 ConditionsComfort  
Time TempWeatherWind HumidityBarometerVisibility
3:54 PM
Fri, Feb 27
33 °FSunny.7 mph48%30.43 "Hg10 mi
2:54 PM32 °FPartly sunny.7 mph54%30.41 "Hg10 mi
1:54 PM32 °FOvercast.8 mph54%30.40 "Hg10 mi
12:54 PM31 °FScattered clouds.8 mph59%30.39 "Hg10 mi
11:54 AM31 °FPassing clouds.14 mph57%30.39 "Hg10 mi
10:54 AM29 °FSunny.8 mph56%30.40 "Hg10 mi
9:54 AM26 °FScattered clouds.9 mph60%30.38 "Hg10 mi
8:54 AM24 °FPartly sunny.7 mph62%30.38 "Hg10 mi
7:54 AM21 °FPartly sunny.8 mph71%30.34 "Hg10 mi
6:54 AM18 °FScattered clouds.7 mph77%30.30 "Hg10 mi
5:54 AM17 °FOvercast.3 mph80%30.28 "Hg10 mi
4:54 AM16 °FOvercast.3 mph84%30.25 "Hg10 mi
3:54 AM10 °FPassing clouds.No wind88%30.22 "Hg10 mi
2:54 AM16 °FClear.No wind87%30.21 "Hg10 mi
1:54 AM16 °FClear.3 mph87%30.19 "Hg10 mi
11:54 PM
Thu, Feb 26
18 °FClear.5 mph84%30.14 "Hg10 mi
10:54 PM18 °FClear.No wind80%30.13 "Hg10 mi
9:54 PM20 °FClear.No wind82%30.13 "Hg10 mi
8:54 PM21 °FClear.5 mph78%30.11 "Hg10 mi
7:54 PM25 °FClear.No wind69%30.09 "Hg10 mi
6:54 PM25 °FClear.6 mph66%30.06 "Hg10 mi
Weather by CustomWeather, © 2015

See weather overviewHow to use our weather pages